Stations météo

réclame
Mon MeteoGroup
Kleine Brogel, Belgique (6479): Température de l'air & dewpoint: 01.12.2019 18:00:00 - 07.12.2019 18:00:00 (CET)Kleine Brogel, Belgique (6479): Vitesse du vent & gusts: 01.12.2019 18:00:00 - 07.12.2019 18:00:00 (CET)Kleine Brogel, Belgique (6479): Direction du vent: 01.12.2019 18:00:00 - 07.12.2019 18:00:00 (CET)Kleine Brogel, Belgique (6479): reduced air pressure: 01.12.2019 18:00:00 - 07.12.2019 18:00:00 (CET)Kleine Brogel, Belgique (6479): visibility: 01.12.2019 18:00:00 - 07.12.2019 18:00:00 (CET)
Date & Time tt [°C] td [°C] ff [km/h] ff [knt] fx [km/h] fx [knt] dd ppp [hPa] vv [km]
07.12.2019 18:00:00 8,8 4,2 14 8 25 14 SW 1015,5 20
07.12.2019 17:00:00 9,1 5,0 14 8 22 12 SW 1015,5 20
07.12.2019 16:00:00 9,1 5,4 14 8 - - WSW 1015,0 20
07.12.2019 15:00:00 9,3 5,3 14 8 25 14 SW 1014,6 20
07.12.2019 14:00:00 9,6 5,2 18 10 29 16 SW 1014,7 20
07.12.2019 13:00:00 9,4 5,6 14 8 - - WSW 1014,5 20
07.12.2019 12:00:00 9,1 5,9 18 10 29 16 SW 1014,3 20
07.12.2019 11:00:00 8,8 6,0 18 10 25 14 WSW 1014,5 20
07.12.2019 10:00:00 8,6 6,2 18 10 - - WSW 1014,1 20
07.12.2019 09:00:00 8,6 6,3 18 10 32 18 WSW 1013,3 20
07.12.2019 08:00:00 8,5 6,4 18 10 32 18 WSW 1012,7 20
07.12.2019 07:00:00 8,6 6,4 18 10 - - WSW 1012,2 20
07.12.2019 06:00:00 8,8 6,6 22 12 36 19 WSW 1011,2 20
07.12.2019 05:00:00 8,8 6,9 22 12 32 18 WSW 1010,7 20
07.12.2019 04:00:00 8,6 7,2 22 12 - - WSW 1009,7 18
07.12.2019 03:00:00 9,1 7,5 22 12 32 18 WSW 1008,8 19
07.12.2019 02:00:00 9,3 7,6 22 12 40 21 WSW 1007,8 20
07.12.2019 01:00:00 9,1 7,8 25 14 - - WSW 1007,2 20
07.12.2019 00:00:00 8,8 7,8 29 16 47 25 WSW 1006,5 14
06.12.2019 23:00:00 8,0 7,3 29 16 40 21 SW 1005,8 17
06.12.2019 22:00:00 7,5 6,7 25 14 - - SW 1006,0 16
06.12.2019 21:00:00 6,6 5,7 29 16 50 27 SW 1005,8 20
06.12.2019 20:00:00 6,4 5,5 32 18 47 25 SW 1006,2 20
06.12.2019 19:00:00 6,3 5,4 31 17 - - SW 1006,7 3,6
06.12.2019 18:00:00 6,0 5,4 29 16 47 25 SW 1006,8 18
06.12.2019 17:00:00 6,0 5,3 25 14 43 23 SSW 1007,2 9
06.12.2019 16:00:00 5,8 5,2 25 14 - - SSW 1007,7 3,0
06.12.2019 15:00:00 5,9 5,0 25 14 43 23 SSW 1008,5 8
06.12.2019 14:00:00 5,6 4,6 25 14 40 21 SSW 1009,5 8
06.12.2019 13:00:00 5,2 4,3 22 12 - - SSW 1010,6 6
06.12.2019 12:00:00 4,6 3,6 25 14 43 23 SSW 1011,2 8
06.12.2019 11:00:00 3,7 2,8 25 14 43 23 SSW 1012,6 4,0
06.12.2019 10:00:00 3,2 2,2 25 14 - - SSW 1013,1 4,0
06.12.2019 09:00:00 2,8 1,7 22 12 40 21 SSW 1013,5 4,0
06.12.2019 08:00:00 2,5 1,0 25 14 40 21 SSW 1013,7 10
06.12.2019 07:00:00 2,5 0,1 22 12 - - SSW 1014,1 10
06.12.2019 06:00:00 2,5 0,3 25 14 40 21 SSW 1014,3 15
06.12.2019 05:00:00 2,5 0,6 18 10 40 21 SW 1014,7 15
06.12.2019 04:00:00 2,0 0,4 22 12 - - SSW 1015,0 14
06.12.2019 03:00:00 2,0 0,7 22 12 40 21 SSW 1015,8 10
06.12.2019 02:00:00 1,7 0,4 22 12 40 21 SSW 1016,3 8
06.12.2019 01:00:00 1,2 -0,1 22 12 - - SSW 1017,2 10
06.12.2019 00:00:00 1,6 0,0 22 12 36 19 SW 1018,3 11
05.12.2019 23:00:00 1,7 0,3 18 10 32 18 SSW 1018,6 10
05.12.2019 22:00:00 1,2 0,0 14 8 - - SSW 1019,2 8
05.12.2019 21:00:00 1,4 0,2 14 8 32 18 SW 1019,2 7
05.12.2019 20:00:00 1,8 1,2 22 12 32 18 SW 1020,0 5
05.12.2019 19:00:00 2,2 1,1 18 10 - - SSW 1020,2 6
05.12.2019 18:00:00 2,2 0,7 18 10 29 16 SW 1020,7 7
05.12.2019 17:00:00 2,7 0,9 14 8 32 18 SW 1021,1 3,3
05.12.2019 16:00:00 3,3 1,7 18 10 - - SW 1021,0 3,8
05.12.2019 15:00:00 3,5 2,1 11 6 14 8 SSW 1021,2 3,7
05.12.2019 14:00:00 2,9 1,6 11 6 18 10 SW 1021,6 3,5
05.12.2019 13:00:00 2,3 1,2 11 6 - - SW 1021,8 3,5
05.12.2019 12:00:00 2,5 1,5 11 6 18 10 SSW 1021,8 3,0
05.12.2019 11:00:00 1,0 0,7 11 6 14 8 SSW 1022,5 3,5
05.12.2019 10:00:00 -0,4 -0,4 8 4 - - SW 1023,0 2,5
05.12.2019 09:00:00 - - - - - - - - -
05.12.2019 08:00:00 -0,6 -0,6 7 4 14 8 WSW 1022,6 0,3
05.12.2019 07:00:00 -0,4 -0,4 9 5 - - SW 1021,8 0,3
05.12.2019 06:00:00 -0,2 -0,2 7 4 11 6 SW 1021,5 0,3
05.12.2019 05:00:00 -0,3 -0,3 11 6 14 8 WSW 1021,8 0,3
05.12.2019 04:00:00 -0,8 -0,8 7 4 - - SW 1021,2 0,3
05.12.2019 03:00:00 -0,9 -0,9 11 6 14 8 WSW 1021,1 0,3
05.12.2019 02:00:00 -1,4 -1,3 7 4 14 8 SW 1021,2 0,3
05.12.2019 01:00:00 -1,6 -1,6 4 2 - - N 1021,1 0,3
05.12.2019 00:00:00 -1,3 -1,2 4 2 7 4 N 1021,2 0,2
04.12.2019 23:00:00 -0,7 -0,7 4 2 7 4 N 1021,2 0,2
04.12.2019 22:00:00 -0,7 -0,7 4 2 - - N 1021,1 0,1
04.12.2019 21:00:00 0,1 0,1 4 2 7 4 N 1021,5 0,1
04.12.2019 20:00:00 0,6 0,6 4 2 11 6 N 1021,0 0,1
04.12.2019 19:00:00 1,1 1,1 4 2 - - N 1021,1 0,2
04.12.2019 18:00:00 1,2 1,2 4 2 11 6 N 1021,2 0,2
04.12.2019 17:00:00 1,5 1,5 4 2 11 6 N 1021,2 0,1
04.12.2019 16:00:00 1,5 1,5 5 3 - - NNE 1021,2 0,1
04.12.2019 15:00:00 1,1 1,1 7 4 11 6 NE 1021,5 0,1
04.12.2019 14:00:00 0,5 0,4 7 4 14 8 ENE 1022,0 0,1
04.12.2019 13:00:00 0,0 0,0 7 4 - - ENE 1022,3 0,1
04.12.2019 12:00:00 0,1 0,1 7 4 11 6 E 1023,2 0,2
04.12.2019 11:00:00 1,7 1,1 4 2 7 4 N 1023,7 5
04.12.2019 10:00:00 0,6 0,3 4 2 - - N 1024,0 5
04.12.2019 09:00:00 -1,3 -1,3 4 2 4 2 N 1023,8 3,7
04.12.2019 08:00:00 -2,1 -2,1 4 2 4 2 N 1024,0 3,7
04.12.2019 07:00:00 -1,9 -1,9 0 0 - - N 1024,2 3,5
04.12.2019 06:00:00 -1,8 -1,8 2 1 0 0 - 1024,2 2,8
04.12.2019 05:00:00 -1,4 -1,3 0 0 0 0 N 1024,5 1,4
04.12.2019 04:00:00 -1,3 -1,3 4 2 - - N 1024,7 1,1
04.12.2019 03:00:00 -1,1 -1,1 4 2 4 2 N 1025,5 0,2
04.12.2019 02:00:00 -1,0 -1,0 4 2 4 2 N 1025,5 0,4
04.12.2019 01:00:00 0,4 0,4 2 1 - - - 1026,0 6
04.12.2019 00:00:00 -0,5 -0,5 4 2 4 2 N 1027,0 0,6
03.12.2019 23:00:00 -0,2 -0,2 4 2 4 2 N 1027,0 1,2
03.12.2019 22:00:00 0,4 0,4 2 1 - - - 1027,2 3,9
03.12.2019 21:00:00 1,0 1,0 4 2 7 4 N 1027,5 0,4
03.12.2019 20:00:00 1,7 1,7 4 2 7 4 N 1027,5 0,6
03.12.2019 19:00:00 2,9 2,9 5 3 - - - 1028,0 2,0
03.12.2019 18:00:00 3,5 3,5 4 2 14 8 N 1028,0 0,2
03.12.2019 17:00:00 3,7 3,7 4 2 7 4 - 1028,0 0,2
03.12.2019 16:00:00 4,1 3,7 4 2 - - N 1028,0 3,8
03.12.2019 15:00:00 4,6 4,2 7 4 14 8 SSW 1028,2 2,7
03.12.2019 14:00:00 4,7 4,4 4 2 11 6 N 1028,9 2,2
03.12.2019 13:00:00 4,3 4,2 9 5 - - SW 1029,3 1,2
03.12.2019 12:00:00 3,9 3,9 9 5 11 6 SW 1030,0 0,5
03.12.2019 11:00:00 3,7 3,7 7 4 11 6 SSW 1030,2 0,1
03.12.2019 10:00:00 3,4 3,4 7 4 - - SW 1030,4 0,1
03.12.2019 09:00:00 3,5 3,5 7 4 11 6 SW 1030,2 0,1
03.12.2019 08:00:00 4,0 4,0 7 4 14 8 WSW 1030,2 0,3
03.12.2019 07:00:00 4,1 3,9 4 2 - - - 1029,5 2,5
03.12.2019 06:00:00 5,0 4,8 4 2 7 4 N 1029,5 7
03.12.2019 05:00:00 4,6 4,5 5 3 7 4 WSW 1029,7 4,2
03.12.2019 04:00:00 4,6 4,6 4 2 - - - 1029,9 4,5
03.12.2019 03:00:00 4,9 4,8 4 2 7 4 N 1030,0 6
03.12.2019 02:00:00 4,5 4,4 4 2 7 4 N 1030,0 4,5
03.12.2019 01:00:00 4,9 4,8 4 2 - - N 1030,0 5
03.12.2019 00:00:00 5,0 4,7 8 4 11 6 WSW 1029,9 3,6
02.12.2019 23:00:00 5,0 4,8 5 3 11 6 W 1029,7 6
02.12.2019 22:00:00 4,9 4,7 7 4 - - WSW 1029,7 3,3
02.12.2019 21:00:00 4,7 4,4 7 4 11 6 SW 1029,5 8
02.12.2019 20:00:00 3,9 3,7 7 4 11 6 WSW 1029,2 8
02.12.2019 19:00:00 3,9 3,7 7 4 - - SW 1028,9 8
02.12.2019 18:00:00 3,7 3,5 7 4 11 6 SW 1028,5 8
02.12.2019 17:00:00 4,0 3,6 7 4 11 6 WSW 1028,4 10
02.12.2019 16:00:00 5,5 4,3 7 4 - - WSW 1028,0 10
02.12.2019 15:00:00 6,3 4,5 11 6 18 10 W 1027,9 10
02.12.2019 14:00:00 5,8 4,1 7 4 14 8 WSW 1027,9 10
02.12.2019 13:00:00 4,9 3,9 7 4 - - WSW 1028,2 9
02.12.2019 12:00:00 3,7 2,7 11 6 14 8 WSW 1028,0 7
02.12.2019 11:00:00 2,3 1,6 7 4 14 8 WSW 1028,2 4,5
02.12.2019 10:00:00 0,4 0,1 11 6 - - SW 1027,7 3,0
02.12.2019 09:00:00 -0,3 -0,5 7 4 11 6 N 1027,0 3,0
02.12.2019 08:00:00 -0,2 -0,5 7 4 11 6 SW 1026,4 3,0
02.12.2019 07:00:00 -0,6 -0,6 8 4 - - SW 1026,2 3,0
02.12.2019 06:00:00 -1,6 -1,9 7 4 11 6 W 1026,0 3,0
02.12.2019 05:00:00 -2,1 -2,3 7 4 7 4 WSW 1025,5 3,0
02.12.2019 04:00:00 -1,8 -1,8 4 2 - - N 1025,2 2,5
02.12.2019 03:00:00 -0,7 -0,9 4 2 11 6 N 1025,4 5
02.12.2019 02:00:00 -1,1 -1,4 2 1 7 4 - 1024,7 3,6
02.12.2019 01:00:00 -0,1 -0,7 4 2 - - N 1024,2 10
02.12.2019 00:00:00 0,5 -0,3 4 2 11 6 N 1024,0 12
01.12.2019 23:00:00 0,4 -0,5 4 2 7 4 N 1024,0 14
01.12.2019 22:00:00 -0,1 -0,9 4 2 - - N 1023,3 15
01.12.2019 21:00:00 -0,4 -1,4 4 2 7 4 N 1023,1 15
01.12.2019 20:00:00 0,5 -0,8 4 2 11 6 N 1022,6 17
01.12.2019 19:00:00 1,3 -0,3 7 4 - - N 1022,2 18
01.12.2019 18:00:00 1,7 0,0 11 6 22 12 NNE 1021,2 18

tt = Température de l'air
td = dewpoint
ff = Vitesse du vent
fx = gusts
dd = Direction du vent
ppp = reduced air pressure
vv = visibility

stations d'obs. à proximité